Time,TemperatureF,DewpointF,PressureIn,WindDirection,WindDirectionDegrees,WindSpeedMPH,WindSpeedGustMPH,Humidity,HourlyPrecipIn,Conditions,Clouds,dailyrainin,SolarRadiationWatts/m^2,SoftwareType,DateUTC
2013-03-18 00:06:00,24.0,15.0,30.16,ESE,111,0.0,11.0,69,0.00,,,0.00,0,weatherlink.com 1.10,2013-03-18 04:06:00,
2013-03-18 00:21:00,23.9,15.0,30.15,East,94,1.0,12.0,70,0.00,,,0.00,0,weatherlink.com 1.10,2013-03-18 04:21:00,
2013-03-18 00:36:00,23.7,15.0,30.15,ESE,118,2.0,9.0,70,0.00,,,0.00,0,weatherlink.com 1.10,2013-03-18 04:36:00,
2013-03-18 00:52:00,23.6,15.0,30.14,ENE,69,2.0,10.0,71,0.00,,,0.00,0,weatherlink.com 1.10,2013-03-18 04:52:00,
2013-03-18 01:07:00,23.4,15.0,30.13,ESE,111,5.0,13.0,71,0.00,,,0.00,0,weatherlink.com 1.10,2013-03-18 05:07:00,
2013-03-18 01:22:00,23.3,16.0,30.13,East,92,1.0,8.0,72,0.00,,,0.00,0,weatherlink.com 1.10,2013-03-18 05:22:00,
2013-03-18 01:37:00,23.2,15.0,30.13,ESE,103,4.0,11.0,72,0.00,,,0.00,0,weatherlink.com 1.10,2013-03-18 05:37:00,
2013-03-18 01:52:00,23.2,16.0,30.12,ESE,107,0.0,8.0,73,0.00,,,0.00,0,weatherlink.com 1.10,2013-03-18 05:52:00,
2013-03-18 02:07:00,23.1,16.0,30.11,ESE,104,0.0,8.0,73,0.00,,,0.00,0,weatherlink.com 1.10,2013-03-18 06:07:00,
2013-03-18 02:22:00,23.0,18.0,30.11,East,88,0.0,9.0,80,0.00,,,0.00,0,weatherlink.com 1.10,2013-03-18 06:22:00,
2013-03-18 02:52:00,22.6,15.0,30.10,SSE,167,2.0,7.0,74,0.00,,,0.00,0,weatherlink.com 1.10,2013-03-18 06:52:00,
2013-03-18 03:07:00,22.5,15.0,30.10,East,88,8.0,15.0,74,0.00,,,0.00,0,weatherlink.com 1.10,2013-03-18 07:07:00,
2013-03-18 03:22:00,22.3,15.0,30.09,East,89,1.0,9.0,74,0.00,,,0.00,0,weatherlink.com 1.10,2013-03-18 07:22:00,
2013-03-18 03:37:00,22.1,15.0,30.08,SE,125,3.0,8.0,74,0.00,,,0.00,0,weatherlink.com 1.10,2013-03-18 07:37:00,
2013-03-18 03:52:00,21.9,15.0,30.07,East,86,5.0,8.0,74,0.00,,,0.00,0,weatherlink.com 1.10,2013-03-18 07:52:00,
2013-03-18 04:07:00,21.6,15.0,30.06,East,101,2.0,11.0,75,0.00,,,0.00,0,weatherlink.com 1.10,2013-03-18 08:07:00,
2013-03-18 04:22:00,21.5,15.0,30.05,East,90,6.0,13.0,75,0.00,,,0.00,0,weatherlink.com 1.10,2013-03-18 08:22:00,
2013-03-18 04:37:00,21.3,15.0,30.04,SE,126,2.0,9.0,76,0.00,,,0.00,0,weatherlink.com 1.10,2013-03-18 08:37:00,
2013-03-18 04:52:00,21.1,15.0,30.04,East,96,6.0,10.0,76,0.00,,,0.00,0,weatherlink.com 1.10,2013-03-18 08:52:00,
2013-03-18 05:07:00,21.0,15.0,30.03,East,91,2.0,7.0,77,0.00,,,0.00,0,weatherlink.com 1.10,2013-03-18 09:07:00,
2013-03-18 05:22:00,20.8,15.0,30.02,NE,51,1.0,9.0,77,0.00,,,0.00,0,weatherlink.com 1.10,2013-03-18 09:22:00,
2013-03-18 05:37:00,20.7,15.0,30.01,East,96,3.0,9.0,77,0.00,,,0.00,0,weatherlink.com 1.10,2013-03-18 09:37:00,
2013-03-18 05:52:00,20.7,15.0,30.01,ESE,105,1.0,11.0,77,0.00,,,0.00,0,weatherlink.com 1.10,2013-03-18 09:52:00,
2013-03-18 06:07:00,20.8,15.0,29.99,East,91,2.0,9.0,78,0.00,,,0.00,0,weatherlink.com 1.10,2013-03-18 10:07:00,
2013-03-18 06:22:00,20.9,15.0,29.98,ENE,74,1.0,7.0,78,0.00,,,0.00,0,weatherlink.com 1.10,2013-03-18 10:22:00,
2013-03-18 06:37:00,21.0,15.0,29.98,East,88,2.0,11.0,78,0.00,,,0.00,0,weatherlink.com 1.10,2013-03-18 10:37:00,
2013-03-18 06:52:00,21.1,16.0,29.98,ENE,69,3.0,11.0,79,0.00,,,0.00,0,weatherlink.com 1.10,2013-03-18 10:52:00,
2013-03-18 07:07:00,21.2,16.0,29.98,ESE,105,2.0,10.0,79,0.00,,,0.00,0,weatherlink.com 1.10,2013-03-18 11:07:00,
2013-03-18 07:22:00,21.3,16.0,29.96,East,86,1.0,11.0,79,0.00,,,0.00,0,weatherlink.com 1.10,2013-03-18 11:22:00,
2013-03-18 07:37:00,21.5,16.0,29.95,East,94,0.0,10.0,79,0.00,,,0.00,0,weatherlink.com 1.10,2013-03-18 11:37:00,
2013-03-18 07:53:00,21.6,16.0,29.93,East,80,8.0,13.0,79,0.00,,,0.00,0,weatherlink.com 1.10,2013-03-18 11:53:00,
2013-03-18 08:08:00,21.8,16.0,29.92,SE,130,2.0,16.0,79,0.00,,,0.00,12,weatherlink.com 1.10,2013-03-18 12:08:00,
2013-03-18 08:23:00,22.2,17.0,29.91,ENE,71,1.0,13.0,79,0.00,,,0.00,26,weatherlink.com 1.10,2013-03-18 12:23:00,
2013-03-18 08:38:00,22.5,17.0,29.90,East,100,1.0,14.0,79,0.00,,,0.00,35,weatherlink.com 1.10,2013-03-18 12:38:00,
2013-03-18 08:53:00,23.1,18.0,29.89,East,94,3.0,15.0,79,0.00,,,0.00,84,weatherlink.com 1.10,2013-03-18 12:53:00,
2013-03-18 09:08:00,23.8,18.0,29.88,ESE,107,4.0,16.0,79,0.00,,,0.00,74,weatherlink.com 1.10,2013-03-18 13:08:00,
2013-03-18 09:23:00,24.3,18.0,29.87,NE,55,8.0,16.0,78,0.00,,,0.00,84,weatherlink.com 1.10,2013-03-18 13:23:00,
2013-03-18 09:38:00,24.8,19.0,29.86,East,90,2.0,12.0,78,0.00,,,0.00,58,weatherlink.com 1.10,2013-03-18 13:38:00,
2013-03-18 09:53:00,25.2,19.0,29.85,ENE,78,2.0,15.0,78,0.00,,,0.00,70,weatherlink.com 1.10,2013-03-18 13:53:00,
2013-03-18 10:08:00,25.5,20.0,29.84,ESE,105,1.0,13.0,78,0.00,,,0.00,93,weatherlink.com 1.10,2013-03-18 14:08:00,
2013-03-18 10:23:00,25.9,20.0,29.83,East,94,6.0,18.0,79,0.00,,,0.00,128,weatherlink.com 1.10,2013-03-18 14:23:00,
2013-03-18 10:38:00,26.3,21.0,29.82,ENE,76,2.0,11.0,80,0.00,,,0.00,104,weatherlink.com 1.10,2013-03-18 14:38:00,
2013-03-18 10:53:00,26.5,21.0,29.81,East,98,5.0,10.0,80,0.00,,,0.00,149,weatherlink.com 1.10,2013-03-18 14:53:00,
2013-03-18 11:08:00,26.8,21.0,29.79,ESE,102,8.0,13.0,80,0.00,,,0.00,127,weatherlink.com 1.10,2013-03-18 15:08:00,
2013-03-18 11:23:00,27.2,22.0,29.79,East,94,0.0,9.0,80,0.00,,,0.00,74,weatherlink.com 1.10,2013-03-18 15:23:00,
2013-03-18 11:38:00,27.5,22.0,29.78,ENE,59,2.0,11.0,80,0.00,,,0.00,74,weatherlink.com 1.10,2013-03-18 15:38:00,
2013-03-18 11:53:00,27.8,22.0,29.77,ENE,57,8.0,10.0,80,0.00,,,0.00,114,weatherlink.com 1.10,2013-03-18 15:53:00,
2013-03-18 12:08:00,28.3,23.0,29.77,NE,48,9.0,13.0,80,0.00,,,0.00,116,weatherlink.com 1.10,2013-03-18 16:08:00,
2013-03-18 12:23:00,28.6,24.0,29.76,ESE,106,1.0,8.0,81,0.00,,,0.00,142,weatherlink.com 1.10,2013-03-18 16:23:00,
2013-03-18 12:38:00,28.6,24.0,29.75,ESE,115,1.0,11.0,82,0.00,,,0.00,149,weatherlink.com 1.10,2013-03-18 16:38:00,
2013-03-18 12:53:00,28.8,24.0,29.75,ESE,109,3.0,9.0,83,0.00,,,0.00,172,weatherlink.com 1.10,2013-03-18 16:53:00,
2013-03-18 13:08:00,29.3,25.0,29.73,ENE,72,9.0,13.0,84,0.00,,,0.00,179,weatherlink.com 1.10,2013-03-18 17:08:00,
2013-03-18 13:23:00,29.6,25.0,29.71,East,88,3.0,11.0,84,0.00,,,0.00,153,weatherlink.com 1.10,2013-03-18 17:23:00,
2013-03-18 13:38:00,30.1,26.0,29.71,East,99,10.0,10.0,85,0.00,,,0.00,142,weatherlink.com 1.10,2013-03-18 17:38:00,
2013-03-18 13:54:00,30.4,27.0,29.69,ESE,103,8.0,15.0,86,0.00,,,0.00,130,weatherlink.com 1.10,2013-03-18 17:54:00,
2013-03-18 14:09:00,30.7,27.0,29.68,East,100,0.0,16.0,86,0.00,,,0.00,105,weatherlink.com 1.10,2013-03-18 18:09:00,
2013-03-18 14:24:00,30.8,27.0,29.66,East,86,7.0,14.0,86,0.00,,,0.00,109,weatherlink.com 1.10,2013-03-18 18:24:00,
2013-03-18 14:39:00,31.1,27.0,29.65,East,85,3.0,11.0,86,0.00,,,0.00,123,weatherlink.com 1.10,2013-03-18 18:39:00,
2013-03-18 14:54:00,31.2,28.0,29.65,ESE,109,4.0,8.0,87,0.00,,,0.00,62,weatherlink.com 1.10,2013-03-18 18:54:00,
2013-03-18 15:09:00,31.2,28.0,29.65,East,101,0.0,9.0,87,0.00,,,0.00,47,weatherlink.com 1.10,2013-03-18 19:09:00,
2013-03-18 15:24:00,31.4,28.0,29.65,East,98,1.0,7.0,88,0.01,,,0.01,56,weatherlink.com 1.10,2013-03-18 19:24:00,
2013-03-18 15:39:00,31.5,28.0,29.64,East,95,5.0,8.0,88,0.01,,,0.01,70,weatherlink.com 1.10,2013-03-18 19:39:00,
2013-03-18 15:54:00,31.5,28.0,29.63,ESE,103,0.0,6.0,88,0.02,,,0.02,60,weatherlink.com 1.10,2013-03-18 19:54:00,
2013-03-18 16:09:00,31.7,29.0,29.64,East,91,0.0,6.0,89,0.03,,,0.03,56,weatherlink.com 1.10,2013-03-18 20:09:00,
2013-03-18 16:24:00,31.9,29.0,29.63,SE,126,0.0,2.0,89,0.02,,,0.03,98,weatherlink.com 1.10,2013-03-18 20:24:00,
2013-03-18 16:39:00,32.2,29.0,29.63,ESE,106,0.0,1.0,89,0.03,,,0.04,81,weatherlink.com 1.10,2013-03-18 20:39:00,
2013-03-18 16:54:00,32.3,30.0,29.61,ESE,109,2.0,3.0,90,0.03,,,0.05,114,weatherlink.com 1.10,2013-03-18 20:54:00,
2013-03-18 17:09:00,32.4,30.0,29.61,East,89,0.0,3.0,90,0.02,,,0.05,109,weatherlink.com 1.10,2013-03-18 21:09:00,
2013-03-18 17:24:00,32.5,30.0,29.60,SE,130,0.0,0.0,90,0.02,,,0.05,84,weatherlink.com 1.10,2013-03-18 21:24:00,
2013-03-18 17:39:00,32.6,30.0,29.61,ESE,111,0.0,4.0,90,0.01,,,0.05,37,weatherlink.com 1.10,2013-03-18 21:39:00,
2013-03-18 17:54:00,32.6,30.0,29.61,ESE,111,0.0,1.0,90,0.00,,,0.05,83,weatherlink.com 1.10,2013-03-18 21:54:00,
2013-03-18 18:09:00,32.7,30.0,29.61,ESE,110,0.0,2.0,90,0.01,,,0.06,60,weatherlink.com 1.10,2013-03-18 22:09:00,
2013-03-18 18:24:00,32.8,30.0,29.61,ESE,110,0.0,0.0,90,0.01,,,0.06,25,weatherlink.com 1.10,2013-03-18 22:24:00,
2013-03-18 18:39:00,32.7,30.0,29.60,ESE,110,0.0,0.0,90,0.01,,,0.06,32,weatherlink.com 1.10,2013-03-18 22:39:00,
2013-03-18 18:54:00,32.8,30.0,29.60,ESE,110,0.0,0.0,90,0.01,,,0.06,21,weatherlink.com 1.10,2013-03-18 22:54:00,
2013-03-18 19:09:00,32.8,30.0,29.60,SE,134,0.0,2.0,90,0.01,,,0.07,37,weatherlink.com 1.10,2013-03-18 23:09:00,
2013-03-18 19:24:00,32.8,30.0,29.60,South,176,1.0,3.0,90,0.01,,,0.07,11,weatherlink.com 1.10,2013-03-18 23:24:00,
2013-03-18 19:39:00,32.7,30.0,29.60,South,184,0.0,3.0,90,0.01,,,0.07,0,weatherlink.com 1.10,2013-03-18 23:39:00,
2013-03-18 19:54:00,32.6,30.0,29.61,SW,225,0.0,5.0,91,0.01,,,0.07,0,weatherlink.com 1.10,2013-03-18 23:54:00,
2013-03-18 20:09:00,32.6,30.0,29.61,WSW,238,3.0,4.0,91,0.00,,,0.07,0,weatherlink.com 1.10,2013-03-19 00:09:00,
2013-03-18 20:24:00,32.6,30.0,29.61,WSW,242,3.0,11.0,91,0.00,,,0.07,0,weatherlink.com 1.10,2013-03-19 00:24:00,
2013-03-18 20:39:00,32.6,30.0,29.62,SW,229,3.0,9.0,91,0.00,,,0.07,0,weatherlink.com 1.10,2013-03-19 00:39:00,
2013-03-18 20:54:00,32.6,30.0,29.62,SW,236,3.0,13.0,91,0.00,,,0.07,0,weatherlink.com 1.10,2013-03-19 00:54:00,
2013-03-18 21:09:00,32.7,30.0,29.61,WSW,250,3.0,14.0,91,0.00,,,0.07,0,weatherlink.com 1.10,2013-03-19 01:09:00,
2013-03-18 21:24:00,32.8,31.0,29.62,South,190,3.0,13.0,91,0.00,,,0.07,0,weatherlink.com 1.10,2013-03-19 01:24:00,
2013-03-18 21:39:00,32.9,31.0,29.62,WSW,244,2.0,12.0,91,0.00,,,0.07,0,weatherlink.com 1.10,2013-03-19 01:39:00,
2013-03-18 21:54:00,33.0,31.0,29.63,WSW,249,8.0,13.0,91,0.00,,,0.07,0,weatherlink.com 1.10,2013-03-19 01:54:00,
2013-03-18 22:09:00,33.1,31.0,29.62,WNW,292,2.0,15.0,91,0.00,,,0.07,0,weatherlink.com 1.10,2013-03-19 02:09:00,
2013-03-18 22:24:00,33.3,31.0,29.63,West,277,3.0,12.0,91,0.00,,,0.07,0,weatherlink.com 1.10,2013-03-19 02:24:00,
2013-03-18 22:39:00,33.4,31.0,29.63,WSW,254,11.0,12.0,90,0.00,,,0.07,0,weatherlink.com 1.10,2013-03-19 02:39:00,
2013-03-18 22:54:00,33.5,31.0,29.63,West,281,4.0,15.0,90,0.00,,,0.07,0,weatherlink.com 1.10,2013-03-19 02:54:00,
2013-03-18 23:09:00,33.5,31.0,29.63,WNW,291,4.0,19.0,90,0.00,,,0.07,0,weatherlink.com 1.10,2013-03-19 03:09:00,
2013-03-18 23:24:00,33.4,31.0,29.63,WSW,252,3.0,8.0,90,0.00,,,0.07,0,weatherlink.com 1.10,2013-03-19 03:24:00,
2013-03-18 23:39:00,32.3,30.0,29.64,West,267,17.0,17.0,89,0.02,,,0.09,0,weatherlink.com 1.10,2013-03-19 03:39:00,
2013-03-18 23:54:00,31.1,28.0,29.65,West,261,3.0,18.0,89,0.02,,,0.09,0,weatherlink.com 1.10,2013-03-19 03:54:00,